Location: Newark
(49.3808°N, 3.1844°E)
Time: 18:17:59
(UTC+00:00)

Tiros 1 despin weight - Visible Passes

Search period start: 13 November 2019 00:00
Search period end: 23 November 2019 00:00
Orbit: 594 x 642 km, 48.2° (Epoch: 12 November)

Date Brightness Start Highest point End Pass type
(mag) Time Alt. Az. Time Alt. Az. Time Alt. Az.
13 Nov ? 17:41:00 10° W 17:45:29 77° S 17:47:46 29° E visible
13 Nov ? 19:22:29 10° W 19:24:49 29° W 19:24:49 29° W visible
14 Nov ? 17:57:33 10° W 18:02:03 77° S 18:03:37 40° ESE visible
14 Nov ? 19:39:06 10° W 19:40:40 20° W 19:40:40 20° W visible
15 Nov ? 18:14:07 10° W 18:18:35 67° SSW 18:19:30 52° SE visible
15 Nov ? 19:55:49 10° W 19:56:33 14° W 19:56:33 14° W visible
16 Nov ? 16:49:12 10° W 16:53:40 78° S 16:58:13 10° E visible
16 Nov ? 18:30:42 10° W 18:35:05 52° SSW 18:35:25 51° S visible
17 Nov ? 17:05:46 10° W 17:10:13 73° S 17:14:21 12° ESE visible
17 Nov ? 18:47:21 10° W 18:51:25 37° SSW 18:51:25 37° SSW visible
18 Nov ? 17:22:20 10° W 17:26:45 61° SSW 17:30:27 15° ESE visible
18 Nov ? 19:04:10 10° W 19:07:32 24° SW 19:07:32 24° SW visible
19 Nov ? 17:38:56 10° W 17:43:12 45° SSW 17:46:40 15° SE visible
19 Nov ? 19:21:28 10° WSW 19:23:45 15° SW 19:23:45 15° SW visible
20 Nov ? 17:55:38 10° W 17:59:35 31° SSW 18:03:04 13° SSE visible
21 Nov ? 16:30:33 10° W 16:34:54 54° SSW 16:39:18 10° ESE visible
21 Nov ? 18:12:36 10° W 18:15:51 20° SW 18:19:08 10° S visible
22 Nov ? 16:47:10 10° W 16:51:19 39° SSW 16:55:30 10° SE visible
22 Nov ? 18:30:28 10° WSW 18:32:00 12° SW 18:33:33 10° SSW visible
